Wind_Speed
36 36 36 36 35 35 35 35 36 34 33 31 32 31 31 31 32 33 32 32 33 33 33 33 33 33 34 34 34 35 36 37 37 38 38 39 39 39 39 40 41 42 43 43
38 38 38 38 36 36 36 36 36 36 34 33 33 33 33 33 33 33 34 34 34 34 35 35 35 36 35 35 36 37 38 39 39 39 39 40 40 41 41 42 43 44 44 44
39 38 39 39 36 36 36 36 36 36 34 34 33 34 34 34 34 34 35 35 35 35 36 37 37 37 37 37 38 39 40 41 41 41 41 42 42 43 44 44 44 44 45 45
40 40 41 39 37 36 36 35 35 35 34 34 34 34 34 35 35 35 36 36 37 37 37 38 38 39 39 39 40 41 41 42 42 42 43 43 44 45 46 46 46 46 46 46
42 42 42 39 38 37 37 36 35 35 34 34 34 34 35 36 36 36 37 37 37 38 38 39 39 40 40 40 41 41 42 43 43 43 43 44 45 46 46 47 47 46 46 46
42 42 42 39 38 38 39 38 36 35 35 35 35 35 35 36 36 36 37 38 39 39 39 39 40 40 40 40 41 41 42 42 43 43 43 44 44 45 45 46 46 47 47 47
40 41 41 39 39 39 39 38 38 37 37 36 36 36 37 37 37 37 38 39 40 40 40 39 40 40 41 41 41 41 41 41 42 42 43 43 43 43 43 44 45 46 46 46
38 39 38 38 39 39 40 39 39 39 38 38 38 37 38 38 39 39 39 40 40 40 40 40 40 41 41 41 41 41 41 41 41 42 42 42 42 42 43 44 44 45 45 45
36 36 36 37 38 39 39 39 39 39 39 39 40 40 40 41 40 40 40 40 40 40 41 41 41 41 41 41 41 41 41 41 41 41 41 41 42 42 43 43 43 44 44 44
36 35 35 36 37 37 38 38 38 39 39 39 40 40 41 41 41 41 41 41 40 40 41 41 41 41 41 41 41 41 41 41 41 41 41 41 42 42 43 43 43 42 42 42
36 35 35 36 37 37 38 38 39 39 39 40 40 40 40 40 40 40 40 40 40 40 40 41 41 41 41 41 41 40 40 40 39 39 40 40 41 41 42 42 42 41 40 41
36 36 37 36 37 38 38 38 39 39 40 40 40 40 40 40 40 40 40 40 40 40 40 40 40 41 41 41 40 40 40 39 39 39 40 40 40 40 40 40 40 40 39 39
38 39 39 39 38 39 40 40 40 40 39 39 39 39 39 40 40 39 39 39 39 39 39 39 39 39 39 39 39 39 39 39 40 40 39 39 39 38 37 37 37 38 38 37
39 40 40 40 40 40 40 40 40 40 39 39 39 39 39 39 39 39 39 39 39 39 38 39 39 39 39 39 39 39 39 39 39 39 38 37 36 36 35 35 34 34 34 35
39 39 39 39 39 39 39 39 39 40 40 40 40 39 39 39 39 39 39 39 39 38 38 38 38 38 38 38 38 39 38 38 37 37 36 36 35 34 33 33 33 33 32 33
38 38 38 38 38 38 38 38 39 39 39 39 40 40 40 40 40 40 40 40 39 38 37 37 37 37 37 37 37 37 36 36 35 35 34 34 33 33 32 32 32 32 32 32
36 36 36 37 37 38 38 38 38 38 38 38 39 39 39 39 39 39 39 39 39 38 38 38 38 37 37 36 35 35 34 33 33 33 32 32 32 31 32 32 32 31 31 31
33 34 34 35 36 36 36 37 37 37 37 37 37 37 37 37 37 37 36 36 36 36 36 37 37 36 36 35 33 32 32 32 32 32 31 31 31 31 32 32 32 31 31 31
30 31 31 32 33 33 34 34 35 35 35 35 35 35 35 35 35 35 35 35 35 35 35 36 36 35 34 33 32 32 32 32 32 31 31 31 31 31 31 31 31 31 31 30
29 30 31 31 32 33 33 33 33 33 33 33 34 34 34 34 34 34 35 34 34 35 35 34 34 33 32 32 32 31 31 31 31 30 30 31 31 31 31 31 30 30 29 29
30 30 31 32 32 32 33 33 33 33 33 33 33 33 33 33 33 33 33 33 33 33 33 33 33 33 32 31 31 30 30 30 30 30 29 29 29 29 29 29 29 28 27 27
29 30 31 31 32 32 32 32 32 33 33 33 33 33 33 32 32 32 31 31 32 32 32 32 32 31 31 31 30 30 29 29 28 28 28 28 28 28 28 27 27 26 26 26
28 29 30 31 31 31 31 31 32 32 32 33 33 32 32 31 30 30 29 30 30 30 31 31 31 30 30 30 30 29 29 28 28 27 27 27 27 27 26 26 25 25 25 25
29 29 29 30 30 30 30 31 32 32 32 32 31 31 31 30 30 30 30 30 30 30 30 30 30 30 30 30 30 29 29 28 28 27 27 26 26 26 25 25 24 24 24 24
29 29 29 30 30 30 30 30 31 31 31 30 30 29 29 29 29 29 30 30 30 30 29 29 29 29 29 28 28 28 28 28 27 26 25 25 25 25 24 24 23 23 23 23
28 29 30 30 30 30 30 30 29 28 28 29 28 29 29 29 29 29 29 30 30 29 29 29 28 28 28 28 27 27 27 26 26 25 25 24 24 23 23 23 23 23 22 22
27 28 28 28 28 28 28 28 27 27 28 28 28 28 28 29 29 29 29 29 29 28 28 28 28 28 28 27 27 26 26 26 25 25 24 23 23 22 22 22 21 21 21 21
Wind_Direction
266 268 268 270 272 273 275 277 279 280 280 281 279 279 278 278 278 277 276 273 272 272 273 273 274 274 274 273 272 271 271 271 271 272 272 272 272 273 274 274 275 276 276 277
264 266 267 268 270 272 273 275 276 277 278 278 277 275 276 276 277 276 275 275 273 272 273 274 274 275 275 275 274 273 273 273 273 273 273 273 273 273 274 274 275 276 277 278
264 265 266 266 269 271 272 273 275 276 277 276 274 273 274 275 275 275 275 275 274 273 274 274 274 274 275 275 275 275 275 275 275 274 274 274 274 274 275 275 276 277 277 278
265 265 265 267 268 269 270 271 272 273 274 274 274 274 275 276 276 276 276 275 275 275 275 275 275 275 276 276 277 277 277 277 276 276 276 275 275 275 275 275 276 277 277 277
266 266 267 267 268 270 270 270 271 272 272 272 272 272 274 275 276 276 276 275 275 276 277 277 276 277 277 277 278 279 279 279 278 278 278 277 276 276 275 274 275 276 276 277
267 268 269 269 269 270 271 271 270 271 271 271 272 272 274 275 277 277 277 277 277 277 278 278 278 278 278 278 278 279 280 279 279 279 279 279 278 276 275 274 274 275 275 276
267 267 268 269 270 270 270 271 271 271 271 271 272 274 275 276 277 278 278 278 278 278 279 278 278 278 278 278 278 279 280 279 279 279 279 278 277 276 275 275 275 275 275 276
266 267 267 268 269 269 271 271 272 272 272 272 274 275 276 278 279 279 279 279 279 279 279 278 278 279 280 280 280 280 280 280 280 279 279 278 278 277 277 277 276 275 275 275
265 266 267 268 268 268 269 271 272 273 273 273 275 276 277 278 279 279 279 280 279 279 279 279 279 280 280 281 281 281 280 280 280 280 279 278 278 277 277 278 277 275 275 275
263 264 264 265 266 268 269 272 274 273 274 274 275 277 278 278 279 279 279 279 280 280 279 280 280 281 281 281 281 281 280 280 280 280 280 279 279 278 278 278 277 275 275 276
263 264 264 264 266 268 269 271 273 274 274 275 276 276 276 277 278 279 279 279 280 280 280 280 280 280 280 281 281 280 280 281 280 280 280 280 280 279 279 278 278 277 277 277
262 263 264 265 266 268 270 271 273 274 275 275 275 275 275 276 277 278 279 279 280 281 281 281 280 280 280 280 280 280 280 280 279 279 278 279 280 279 279 277 276 277 277 277
263 263 265 266 268 269 270 271 272 274 274 274 274 274 275 276 277 277 278 279 280 280 280 281 281 280 280 280 280 280 279 279 279 279 279 279 279 278 278 277 277 277 277 277
263 265 265 266 268 269 271 271 271 272 273 274 274 274 275 276 277 277 277 278 279 280 280 281 281 280 280 280 280 281 280 280 280 279 278 278 278 278 278 278 278 277 277 277
265 266 267 269 269 269 270 271 271 272 272 273 273 274 275 276 277 278 278 278 279 280 281 282 282 282 282 281 282 282 282 282 281 279 278 278 277 277 278 278 278 277 277 277
267 268 269 269 269 270 271 273 273 273 273 274 274 274 275 276 277 277 277 279 280 280 281 282 283 283 283 283 284 284 283 282 281 280 278 277 276 276 276 277 278 277 277 278
268 269 270 270 270 271 272 273 273 274 274 275 276 277 277 277 277 277 277 277 278 280 281 282 283 283 283 284 284 283 283 282 281 280 278 276 275 275 276 277 278 278 277 277
268 270 271 271 271 271 272 272 272 273 274 275 276 276 276 277 277 277 277 277 278 279 281 281 283 283 282 282 282 282 282 282 281 281 280 278 277 277 277 277 277 277 277 278
270 270 271 272 272 272 272 273 273 273 274 275 276 276 276 276 276 276 276 277 278 280 280 281 281 281 281 281 281 281 282 282 282 281 280 279 277 277 278 278 278 277 277 277
272 273 272 272 272 272 273 274 274 274 275 276 277 277 277 277 277 277 276 276 278 279 280 280 280 280 280 280 280 281 281 282 282 281 279 277 276 277 278 278 278 277 277 278
273 273 273 273 274 275 275 275 275 275 276 276 277 277 277 277 278 278 278 278 278 279 280 280 280 279 279 280 280 280 281 281 281 280 279 278 277 277 278 279 278 277 277 278
274 274 274 274 275 276 277 277 277 277 276 276 277 277 277 277 277 278 278 279 279 279 279 280 279 279 279 279 279 280 281 282 281 280 279 279 278 278 279 278 277 277 277 277
277 277 277 276 277 277 277 277 277 277 277 277 277 277 277 277 277 277 278 279 279 279 279 279 279 278 277 278 279 280 280 281 280 280 280 279 280 280 279 278 277 276 276 277
279 279 279 279 280 279 278 277 277 277 277 277 277 277 277 276 276 277 278 279 280 280 279 279 278 277 277 278 278 279 279 279 279 280 280 279 279 280 279 277 276 275 275 276
280 281 281 281 281 281 280 279 278 278 277 277 278 278 277 277 277 277 277 278 280 280 280 279 278 277 277 278 278 278 278 278 278 278 279 279 279 279 278 276 274 274 275 275
283 283 282 282 281 281 281 281 280 279 278 278 276 276 276 277 277 277 277 278 279 280 279 278 278 277 277 278 278 277 277 277 277 277 277 278 278 278 276 274 273 274 274 274
285 285 285 284 283 282 282 281 280 279 278 278 277 277 277 277 277 277 277 278 279 279 279 278 277 276 276 276 276 276 276 276 276 276 275 276 276 276 275 274 273 273 273 272
Height
5634 5635 5634 5635 5636 5635 5634 5633 5633 5633 5632 5632 5630 5628 5627 5626 5625 5624 5624 5623 5623 5622 5622 5621 5621 5621 5620 5620 5620 5620 5619 5619 5619 5619 5618 5618 5618 5618 5618 5617 5616 5615 5614 5613
5624 5625 5624 5625 5626 5626 5626 5625 5624 5623 5624 5623 5621 5620 5619 5618 5617 5616 5616 5615 5614 5614 5613 5613 5612 5611 5611 5610 5610 5609 5609 5609 5608 5608 5608 5607 5607 5607 5606 5606 5605 5604 5602 5601
5613 5614 5613 5615 5618 5617 5616 5616 5615 5614 5616 5613 5612 5610 5610 5609 5609 5608 5607 5606 5605 5605 5604 5603 5602 5602 5601 5600 5599 5599 5598 5598 5597 5597 5596 5596 5595 5595 5594 5594 5593 5591 5590 5589
5601 5603 5603 5609 5607 5606 5606 5606 5605 5605 5604 5603 5602 5601 5601 5600 5599 5599 5598 5597 5596 5595 5594 5593 5592 5591 5590 5589 5588 5588 5587 5586 5585 5585 5584 5584 5583 5582 5582 5581 5580 5579 5578 5576
5589 5590 5591 5596 5596 5595 5595 5596 5595 5595 5594 5594 5593 5592 5592 5590 5589 5588 5588 5587 5586 5585 5584 5582 5581 5580 5579 5578 5577 5576 5575 5574 5573 5572 5571 5571 5570 5569 5568 5567 5567 5566 5565 5564
5578 5578 5581 5586 5585 5584 5584 5584 5585 5584 5584 5584 5583 5583 5583 5581 5579 5578 5577 5576 5575 5574 5573 5572 5570 5569 5568 5567 5566 5564 5563 5562 5560 5559 5558 5557 5556 5555 5554 5554 5553 5552 5552 5550
5567 5567 5570 5573 5573 5573 5574 5575 5574 5573 5573 5573 5573 5573 5572 5570 5569 5568 5567 5565 5564 5563 5562 5561 5559 5558 5557 5556 5554 5553 5551 5550 5549 5547 5546 5545 5544 5543 5541 5540 5540 5539 5539 5538
5557 5558 5562 5562 5562 5562 5562 5562 5562 5562 5562 5562 5562 5561 5560 5559 5558 5557 5556 5554 5553 5552 5550 5549 5548 5547 5546 5544 5543 5541 5540 5538 5537 5535 5534 5532 5531 5530 5529 5527 5527 5526 5525 5525
5548 5550 5550 5550 5550 5550 5550 5551 5551 5551 5551 5551 5550 5550 5549 5548 5547 5546 5545 5543 5542 5540 5539 5538 5536 5535 5533 5532 5530 5529 5528 5526 5525 5523 5522 5520 5518 5517 5516 5515 5514 5513 5512 5512
5536 5538 5538 5538 5538 5539 5539 5540 5540 5540 5539 5539 5538 5538 5537 5536 5535 5534 5533 5532 5530 5529 5527 5526 5524 5523 5521 5520 5518 5517 5516 5514 5512 5511 5510 5508 5507 5505 5504 5502 5501 5500 5499 5499
5526 5527 5527 5528 5528 5528 5528 5528 5528 5528 5528 5527 5527 5526 5525 5525 5524 5523 5521 5520 5519 5517 5516 5514 5513 5511 5509 5508 5506 5505 5503 5502 5500 5498 5497 5496 5494 5493 5492 5490 5489 5488 5487 5486
5515 5516 5516 5517 5517 5518 5517 5517 5517 5517 5517 5516 5515 5515 5514 5513 5512 5511 5510 5508 5507 5506 5504 5502 5501 5499 5498 5496 5494 5492 5491 5490 5488 5487 5485 5484 5482 5481 5480 5479 5478 5476 5475 5475
5503 5504 5504 5506 5506 5506 5506 5506 5506 5506 5505 5505 5504 5503 5502 5502 5501 5500 5498 5497 5496 5494 5493 5491 5489 5488 5486 5484 5482 5480 5479 5478 5476 5475 5473 5472 5470 5469 5469 5468 5467 5465 5464 5463
5491 5492 5493 5494 5495 5495 5495 5494 5494 5494 5493 5493 5492 5492 5491 5490 5490 5488 5487 5486 5484 5483 5481 5480 5478 5476 5474 5472 5471 5469 5468 5466 5465 5463 5462 5460 5459 5458 5458 5457 5457 5456 5454 5453
5480 5481 5482 5483 5483 5483 5483 5483 5483 5483 5482 5482 5481 5480 5480 5479 5478 5477 5476 5474 5473 5472 5470 5468 5467 5465 5463 5462 5460 5458 5456 5455 5453 5452 5451 5450 5449 5448 5448 5447 5446 5446 5445 5444
5469 5470 5471 5471 5472 5472 5471 5471 5471 5471 5471 5470 5470 5469 5468 5467 5466 5466 5465 5463 5462 5461 5459 5458 5456 5454 5452 5451 5449 5447 5446 5444 5443 5441 5440 5439 5439 5438 5438 5437 5436 5436 5435 5435
5459 5459 5460 5460 5460 5460 5460 5460 5460 5460 5459 5459 5458 5457 5456 5455 5455 5454 5453 5452 5451 5450 5448 5447 5445 5444 5442 5440 5438 5437 5436 5434 5433 5431 5430 5429 5429 5428 5428 5427 5427 5426 5426 5425
5449 5449 5449 5449 5449 5450 5449 5449 5449 5448 5448 5447 5447 5446 5445 5444 5443 5442 5442 5441 5440 5439 5438 5436 5434 5433 5431 5430 5428 5427 5426 5424 5423 5422 5421 5420 5419 5419 5418 5417 5417 5417 5416 5416
5440 5440 5440 5439 5439 5439 5439 5438 5438 5438 5437 5436 5435 5435 5434 5433 5432 5431 5431 5430 5430 5429 5428 5426 5424 5423 5421 5420 5418 5417 5416 5415 5414 5412 5411 5410 5410 5409 5409 5408 5407 5407 5407 5406
5431 5431 5430 5430 5430 5429 5429 5428 5428 5427 5426 5425 5425 5424 5423 5422 5421 5421 5420 5420 5419 5418 5417 5415 5414 5413 5412 5410 5409 5408 5406 5405 5404 5403 5402 5401 5401 5400 5400 5399 5398 5398 5397 5396
5422 5422 5421 5421 5420 5420 5419 5418 5418 5417 5416 5415 5414 5413 5413 5412 5411 5410 5410 5409 5409 5407 5406 5405 5404 5403 5402 5401 5400 5398 5397 5396 5395 5394 5393 5392 5392 5391 5391 5390 5389 5389 5388 5387
5413 5413 5412 5411 5411 5410 5409 5408 5407 5407 5406 5405 5404 5403 5402 5402 5401 5400 5400 5399 5398 5397 5396 5395 5394 5393 5392 5391 5390 5389 5388 5387 5386 5385 5384 5384 5383 5382 5382 5381 5380 5380 5379 5379
5404 5403 5402 5402 5401 5400 5399 5398 5397 5396 5396 5395 5394 5393 5392 5392 5391 5391 5390 5389 5388 5387 5386 5385 5384 5383 5383 5382 5381 5381 5380 5379 5378 5377 5376 5375 5374 5374 5373 5372 5372 5372 5371 5371
5395 5394 5393 5392 5391 5390 5389 5388 5387 5386 5386 5385 5384 5383 5382 5382 5382 5381 5380 5380 5379 5378 5377 5376 5375 5374 5373 5373 5372 5371 5371 5370 5369 5368 5367 5367 5366 5365 5364 5364 5364 5363 5363 5363
5386 5385 5384 5382 5381 5380 5379 5378 5377 5377 5376 5375 5374 5373 5373 5372 5372 5372 5371 5370 5369 5368 5367 5366 5366 5365 5364 5363 5363 5362 5361 5361 5360 5359 5359 5358 5357 5357 5356 5356 5356 5356 5356 5355
5377 5376 5374 5373 5372 5371 5370 5369 5368 5367 5366 5365 5365 5364 5363 5362 5362 5361 5361 5360 5359 5358 5358 5357 5356 5356 5355 5354 5354 5353 5352 5352 5351 5351 5350 5350 5349 5349 5348 5348 5348 5348 5348 5348
5369 5367 5365 5364 5363 5361 5360 5359 5358 5357 5356 5356 5355 5355 5354 5353 5352 5352 5351 5350 5350 5349 5348 5348 5347 5346 5346 5345 5345 5344 5344 5343 5343 5342 5342 5342 5342 5341 5341 5341 5341 5341 5341 5341